Weather History for Idabel, OK

Change the Weather History Date:

Thursday, March 7, 2013

  Actual Average (KDEQ) Record (KDEQ)
Temperature  
Mean Temperature 50 °F 51 °F  
Max Temperature 66 °F 64 °F 84 °F (1974)
Min Temperature 35 °F 38 °F 13 °F (1943)
Degree Days  
Heating Degree Days 14 14  
Month to date heating degree days 106  
Since 1 July heating degree days 2597  
Cooling Degree Days 0 0  
Month to date cooling degree days 0  
Year to date cooling degree days 2  
Moisture  
Dew Point 28 °F    
Average Humidity 48    
Maximum Humidity 81    
Minimum Humidity 23    
Precipitation  
Precipitation 0.00 in 0.12 in 1.83 in (1978)
Month to date precipitation 0.67  
Year to date precipitation 7.67  
Snow  
Snow 0.00 in - - ()
Month to date snowfall  
Since 1 July snowfall  
Snow Depth -    
Sea Level Pressure  
Sea Level Pressure 30.25 in    
Wind  
Wind Speed 9 mph (ESE)    
Max Wind Speed 13 mph    
Max Gust Speed 20 mph    
Visibility 10 miles    
Events      
T = Trace of Precipitation, MM = Missing Value Source: NWS Daily Summary

Daily Weather History Graph

Daily Weather History Graph

Search for Another Location

Airport:

Trip Planner

Search our weather history database for the weather conditions in past years. The results will help you decide how hot, cold, wet, or windy it might be!

Date:

Astronomy

Mar. 07, 2013 Rise Set
Actual Time 6:40 AM CST 6:21 PM CST
Civil Twilight 6:15 AM CST 6:46 PM CST
Nautical Twilight 5:46 AM CST 7:14 PM CST
Astronomical Twilight 5:17 AM CST 7:44 PM CST
Moon 3:30 AM CST (3/7) 2:19 PM CST (3/7)
Length of Visible Light 12h 30m
Length of Day
11h 41m
Waning Crescent, 20% of the Moon is Illuminated
Mar 7
Waning Crescent
Mar 11
New
Mar 19
First Quarter
Mar 27
Full
Apr 2
Last Quarter

Hourly Weather History & Observations

Time (CST) Temp. Windchill Dew Point Humidity Pressure Visibility Wind Dir Wind Speed Gust Speed Precip Events Conditions
12:15 AM 41.0 °F 34.7 °F 23.0 °F 49% 30.23 in 10.0 mi East 10.4 mph - N/A   Clear
12:20 AM 41.0 °F 35.2 °F 21.2 °F 45% 30.23 in 10.0 mi ESE 9.2 mph - N/A   Clear
12:55 AM 41.0 °F 36.4 °F 23.0 °F 49% 30.24 in 10.0 mi East 6.9 mph - N/A   Clear
12:58 AM 41.0 °F 36.4 °F 21.2 °F 45% 30.24 in 10.0 mi East 6.9 mph - N/A   Clear
1:15 AM 39.2 °F 33.6 °F 23.0 °F 52% 30.24 in 10.0 mi ESE 8.1 mph - N/A   Clear
1:55 AM 39.2 °F 33.6 °F 24.8 °F 56% 30.24 in 10.0 mi East 8.1 mph - N/A   Clear
1:59 AM 39.2 °F 33.6 °F 24.8 °F 56% 30.25 in 10.0 mi East 8.1 mph - N/A   Clear
2:18 AM 39.2 °F 34.2 °F 24.8 °F 56% 30.25 in 10.0 mi ENE 6.9 mph - N/A   Clear
2:35 AM 37.4 °F 33.8 °F 26.6 °F 65% 30.25 in 10.0 mi NE 4.6 mph - N/A   Clear
2:55 AM 35.6 °F 30.7 °F 26.6 °F 70% 30.26 in 10.0 mi ENE 5.8 mph - N/A   Clear
3:15 AM 35.6 °F 30.7 °F 26.6 °F 70% 30.25 in 10.0 mi ENE 5.8 mph - N/A   Clear
3:35 AM 35.6 °F 30.7 °F 26.6 °F 70% 30.26 in 10.0 mi ENE 5.8 mph - N/A   Clear
3:55 AM 35.6 °F 29.2 °F 28.4 °F 75% 30.26 in 10.0 mi ENE 8.1 mph - N/A   Clear
4:15 AM 35.6 °F 28.6 °F 28.4 °F 75% 30.26 in 10.0 mi East 9.2 mph - N/A   Clear
4:35 AM 35.6 °F 29.2 °F 28.4 °F 75% 30.26 in 10.0 mi East 8.1 mph - N/A   Clear
4:55 AM 35.6 °F 29.9 °F 28.4 °F 75% 30.27 in 10.0 mi East 6.9 mph - N/A   Clear
5:15 AM 35.6 °F 29.2 °F 28.4 °F 75% 30.27 in 10.0 mi East 8.1 mph - N/A   Clear
5:35 AM 35.6 °F 29.2 °F 28.4 °F 75% 30.28 in 10.0 mi East 8.1 mph - N/A   Clear
5:55 AM 35.6 °F 29.9 °F 28.4 °F 75% 30.29 in 10.0 mi East 6.9 mph - N/A   Clear
6:15 AM 35.6 °F 29.2 °F 28.4 °F 75% 30.29 in 10.0 mi East 8.1 mph - N/A   Clear
6:35 AM 35.6 °F 28.6 °F 30.2 °F 81% 30.29 in 10.0 mi East 9.2 mph - N/A   Clear
6:55 AM 35.6 °F 29.2 °F 30.2 °F 81% 30.30 in 10.0 mi East 8.1 mph - N/A   Clear
7:15 AM 35.6 °F 29.9 °F 30.2 °F 81% 30.31 in 10.0 mi East 6.9 mph - N/A   Clear
7:35 AM 37.4 °F 30.3 °F 30.2 °F 75% 30.31 in 10.0 mi East 10.4 mph - N/A   Clear
8:15 AM 41.0 °F 34.3 °F 30.2 °F 65% 30.32 in 10.0 mi East 11.5 mph 19.6 mph N/A   Clear
8:35 AM 42.8 °F 36.6 °F 30.2 °F 61% 30.32 in 10.0 mi ESE 11.5 mph - N/A   Clear
9:15 AM 46.4 °F 41.5 °F 30.2 °F 53% 30.33 in 10.0 mi ESE 10.4 mph - N/A   Clear
9:35 AM 48.2 °F - 30.2 °F 50% 30.33 in 10.0 mi SSE 11.5 mph 17.3 mph N/A   Clear
9:55 AM 50.0 °F - 30.2 °F 47% 30.33 in 10.0 mi SSE 12.7 mph - N/A   Clear
10:15 AM 50.0 °F - 30.2 °F 47% 30.32 in 10.0 mi SE 9.2 mph - N/A   Clear
10:35 AM 51.8 °F - 30.2 °F 44% 30.32 in 10.0 mi ESE 11.5 mph - N/A   Clear
10:55 AM 51.8 °F - 30.2 °F 44% 30.31 in 10.0 mi SSE 10.4 mph - N/A   Clear
11:15 AM 53.6 °F - 30.2 °F 41% 30.30 in 10.0 mi SE 11.5 mph - N/A   Clear
11:35 AM 55.4 °F - 30.2 °F 38% 30.30 in 10.0 mi SE 10.4 mph - N/A   Clear
11:55 AM 57.2 °F - 30.2 °F 36% 30.30 in 10.0 mi SE 8.1 mph - N/A   Clear
12:15 PM 59.0 °F - 30.2 °F 34% 30.29 in 10.0 mi SSE 9.2 mph - N/A   Clear
12:35 PM 60.8 °F - 28.4 °F 29% 30.27 in 10.0 mi SSE 6.9 mph 11.5 mph N/A   Clear
12:55 PM 60.8 °F - 28.4 °F 29% 30.26 in 10.0 mi ESE 11.5 mph 18.4 mph N/A   Clear
1:15 PM 60.8 °F - 28.4 °F 29% 30.25 in 10.0 mi South 8.1 mph 16.1 mph N/A   Clear
1:35 PM 62.6 °F - 28.4 °F 27% 30.24 in 10.0 mi SSE 11.5 mph 16.1 mph N/A   Clear
1:55 PM 62.6 °F - 28.4 °F 27% 30.23 in 10.0 mi South 11.5 mph 16.1 mph N/A   Clear
2:15 PM 62.6 °F - 28.4 °F 27% 30.22 in 10.0 mi SE 10.4 mph 18.4 mph N/A   Clear
2:35 PM 64.4 °F - 28.4 °F 26% 30.21 in 10.0 mi SE 11.5 mph 17.3 mph N/A   Clear
2:55 PM 64.4 °F - 28.4 °F 26% 30.20 in 10.0 mi SE 10.4 mph - N/A   Clear
3:15 PM 64.4 °F - 26.6 °F 24% 30.19 in 10.0 mi SSE 10.4 mph - N/A   Clear
3:35 PM 66.2 °F - 26.6 °F 23% 30.19 in 10.0 mi SE 5.8 mph 18.4 mph N/A   Clear
3:55 PM 64.4 °F - 26.6 °F 24% 30.18 in 10.0 mi ESE 10.4 mph 16.1 mph N/A   Clear
4:15 PM 64.4 °F - 26.6 °F 24% 30.17 in 10.0 mi ESE 11.5 mph - N/A   Clear
4:35 PM 64.4 °F - 28.4 °F 26% 30.17 in 10.0 mi SE 11.5 mph 17.3 mph N/A   Clear
4:55 PM 64.4 °F - 28.4 °F 26% 30.17 in 10.0 mi ESE 12.7 mph - N/A   Clear
5:15 PM 64.4 °F - 28.4 °F 26% 30.17 in 10.0 mi ESE 11.5 mph 17.3 mph N/A   Clear
5:35 PM 62.6 °F - 28.4 °F 27% 30.17 in 10.0 mi SE 10.4 mph - N/A   Clear
5:55 PM 62.6 °F - 28.4 °F 27% 30.17 in 10.0 mi ESE 9.2 mph - N/A   Clear
7:35 PM 53.6 °F - 30.2 °F 41% 30.19 in 10.0 mi ESE 6.9 mph - N/A   Clear
8:15 PM 51.8 °F - 32.0 °F 47% 30.19 in 10.0 mi ESE 8.1 mph - N/A   Clear
8:35 PM 51.8 °F - 32.0 °F 47% 30.19 in 10.0 mi ESE 8.1 mph - N/A   Clear
8:55 PM 51.8 °F - 30.2 °F 44% 30.20 in 10.0 mi SE 8.1 mph - N/A   Clear
9:15 PM 50.0 °F - 30.2 °F 47% 30.20 in 10.0 mi ESE 8.1 mph - N/A   Clear
9:35 PM 50.0 °F - 30.2 °F 47% 30.20 in 10.0 mi SE 8.1 mph - N/A   Clear
9:55 PM 50.0 °F - 30.2 °F 47% 30.20 in 10.0 mi SE 8.1 mph - N/A   Clear
10:15 PM 50.0 °F - 28.4 °F 43% 30.20 in 10.0 mi SE 9.2 mph - N/A   Clear
10:35 PM 50.0 °F - 28.4 °F 43% 30.20 in 10.0 mi SE 8.1 mph - N/A   Clear
10:55 PM 50.0 °F - 28.4 °F 43% 30.21 in 10.0 mi SE 8.1 mph - N/A   Clear
11:15 PM 50.0 °F - 28.4 °F 43% 30.20 in 10.0 mi SE 8.1 mph - N/A   Clear
11:35 PM 50.0 °F - 28.4 °F 43% 30.20 in 10.0 mi ESE 6.9 mph - N/A   Clear